Flag for Dominican Republic Weather past 2 weeks in Santiago de los Caballeros, Dominican Republic

Now
81 °F

Passing clouds.


Feels Like: 84 °F
Forecast: 70 / 89 °F
Wind: 12 mph from Southeast

Location: Santiago

Current Time: May 28, 2015 at 8:52:36 PM

Latest Report: May 28, 2015 at 8:00 PM


Visibility: N/A

Pressure: 29.95 "Hg

Humidity: 70%

Dew point: 70 °F

Location of Santiago de los CaballerosLocation

Historic Weather in Santiago de los Caballeros — Graph

°F

Santiago de los Caballeros temperature yesterday

Maximum temperature yesterday: 88 °F (at 1:00 PM)
Minimum temperature yesterday: 66 °F (at 6:00 AM)
Average temperature yesterday: 77 °F

Past Weeks' High & Low Weather Summary

 TemperatureHumidityPressure
High91 °F (May 14, 2:00 PM)100% (May 18, 5:00 AM)30.21 "Hg (May 18, 5:00 AM)
Low66 °F (May 27, 6:00 AM)41% (May 15, 3:00 PM)29.86 "Hg (May 14, 11:00 PM)
Average79 °F76%30.02 "Hg
* Reported May 13 7:00 PM — May 28 7:00 PM, Santiago de los Caballeros, Weather by CustomWeather, © 2015

Note: Actual official high and low records may vary slightly from our data, if they occured in-between our weather recording intervals... More about our weather records

Advertising

Santiago de los Caballeros weather history for previous 24 hours

 ConditionsComfort  
Time TempWeatherWind HumidityBarometerVisibility
7:00 PM
Thu, May 28
84 °FScattered clouds.9 mph62%29.92 "HgN/A
6:00 PM84 °FPartly sunny.9 mph62%29.92 "HgN/A
5:00 PM84 °FPartly sunny.12 mph58%29.89 "HgN/A
4:00 PM84 °FPartly sunny.9 mph62%29.92 "HgN/A
3:00 PM86 °FPartly sunny.12 mph59%29.92 "HgN/A
2:00 PM86 °FPartly sunny.14 mph59%29.95 "HgN/A
1:00 PM84 °FScattered clouds.12 mph58%29.95 "HgN/A
12:00 PM86 °FScattered clouds.12 mph59%29.98 "HgN/A
11:00 AM81 °FScattered clouds.12 mph70%30.01 "HgN/A
10:00 AM81 °FScattered clouds.7 mph70%29.98 "HgN/A
9:00 AM75 °FPartly sunny.5 mph83%29.98 "HgN/A
8:00 AM73 °FPartly sunny.7 mph89%29.98 "HgN/A
7:00 AM73 °FScattered clouds.6 mph89%29.95 "HgN/A
6:00 AM73 °FPassing clouds.5 mph89%29.95 "HgN/A
5:00 AM73 °FPassing clouds.3 mph89%29.92 "HgN/A
4:00 AM73 °FPassing clouds.7 mph89%29.92 "HgN/A
3:00 AM73 °FPassing clouds.3 mph89%29.92 "HgN/A
2:00 AM72 °FPassing clouds.5 mph94%29.95 "HgN/A
1:00 AM73 °FPassing clouds.6 mph89%29.95 "HgN/A
12:00 AM73 °FPassing clouds.6 mph89%29.98 "HgN/A
11:00 PM
Wed, May 27
75 °FPassing clouds.6 mph78%29.98 "HgN/A
10:00 PM77 °FPassing clouds.6 mph74%29.98 "HgN/A
9:00 PM77 °FPassing clouds.6 mph74%29.98 "HgN/A
8:00 PM79 °FPassing clouds.12 mph70%29.95 "HgN/A
Weather by CustomWeather, © 2015

See weather overviewHow to use our weather pages